TimePST,TemperatureF,Dew PointF,Humidity,Sea Level PressureIn,VisibilityMPH,Wind Direction,Wind SpeedMPH,Gust SpeedMPH,PrecipitationIn,Events,Conditions,WindDirDegrees,DateUTC
12:56 AM,41.0,22.1,47,29.88,10.0,NNW,19.6,26.5,N/A,,Partly Cloudy,340,2012-12-19 08:56:00
1:56 AM,39.9,19.0,43,29.91,10.0,NNW,15.0,-,N/A,,Clear,340,2012-12-19 09:56:00
2:56 AM,39.9,13.1,33,29.96,10.0,NNW,18.4,27.6,N/A,,Clear,340,2012-12-19 10:56:00
3:56 AM,37.9,11.1,33,30.00,10.0,North,17.3,25.3,N/A,,Clear,350,2012-12-19 11:56:00
4:56 AM,37.9,9.1,30,30.04,10.0,NNW,21.9,25.3,N/A,,Clear,340,2012-12-19 12:56:00
5:56 AM,37.9,8.1,29,30.12,10.0,NNW,17.3,32.2,N/A,,Clear,330,2012-12-19 13:56:00
6:56 AM,36.9,8.1,30,30.17,10.0,NNW,21.9,27.6,N/A,,Clear,340,2012-12-19 14:56:00
7:56 AM,37.9,8.1,29,30.24,10.0,North,19.6,26.5,N/A,,Clear,350,2012-12-19 15:56:00
8:56 AM,39.9,7.2,26,30.27,10.0,North,16.1,-,N/A,,Clear,350,2012-12-19 16:56:00
9:56 AM,41.9,6.1,23,30.29,10.0,North,16.1,-,N/A,,Clear,10,2012-12-19 17:56:00
10:56 AM,43.0,7.2,23,30.29,10.0,North,13.8,-,N/A,,Clear,350,2012-12-19 18:56:00
11:56 AM,43.9,6.1,21,30.29,10.0,NNE,16.1,21.9,N/A,,Clear,30,2012-12-19 19:56:00
12:56 PM,45.0,5.0,19,30.30,10.0,NE,13.8,19.6,N/A,,Clear,40,2012-12-19 20:56:00
1:56 PM,45.0,3.0,18,30.30,10.0,ENE,13.8,-,N/A,,Clear,60,2012-12-19 21:56:00
2:56 PM,43.9,5.0,20,30.32,10.0,NE,13.8,-,N/A,,Clear,40,2012-12-19 22:56:00
3:56 PM,42.8,5.0,21,30.30,10.0,ENE,10.4,-,N/A,,Clear,60,2012-12-19 23:56:00
4:56 PM,39.9,8.1,27,30.37,10.0,NE,8.1,-,N/A,,Clear,50,2012-12-20 00:56:00
5:56 PM,37.9,10.0,32,30.39,10.0,NE,4.6,-,N/A,,Clear,50,2012-12-20 01:56:00
6:56 PM,35.6,12.2,38,30.36,10.0,NNE,4.6,-,N/A,,Clear,20,2012-12-20 02:56:00
7:56 PM,34.0,14.0,44,30.43,10.0,East,3.5,-,N/A,,Clear,90,2012-12-20 03:56:00
8:56 PM,34.0,13.1,42,30.44,10.0,ENE,3.5,-,N/A,,Clear,60,2012-12-20 04:56:00
9:56 PM,32.9,16.2,50,30.45,10.0,ENE,3.5,-,N/A,,Clear,60,2012-12-20 05:56:00
10:56 PM,30.0,18.1,61,30.48,10.0,SW,3.5,-,N/A,,Clear,220,2012-12-20 06:56:00
11:56 PM,29.1,16.2,58,30.48,10.0,South,3.5,-,N/A,,Clear,180,2012-12-20 07:56:00